Weather History for KRNO - October, 2011

Change the Weather History Date:

Wednesday, October 26, 2011

  Actual Average Record
Temperature  
Mean Temperature 42 °F 50 °F  
Max Temperature 54 °F 65 °F 82 °F (1937)
Min Temperature 29 °F 36 °F 16 °F (1939)
Degree Days  
Heating Degree Days 23 15  
Month to date heating degree days 190 267  
Since 1 July heating degree days 193 357  
Cooling Degree Days 0 0  
Month to date cooling degree days 4 4  
Year to date cooling degree days 964 838  
Moisture  
Dew Point 11 °F    
Average Humidity 36    
Maximum Humidity 58    
Minimum Humidity 13    
Precipitation  
Precipitation 0.00 in 0.01 in 0.90 in (1950)
Month to date precipitation 0.24 0.41  
Year to date precipitation 4.86 5.45  
Snow  
Snow 0.00 in 0.00 in T in (1984)
Month to date snowfall 0.0 0.2  
Since 1 July snowfall 0.0 0.3  
Since 1 September snowfall 0.0 0.3  
Snow Depth 0.00 in    
Sea Level Pressure  
Sea Level Pressure 30.26 in    
Wind  
Wind Speed 4 mph (East)    
Max Wind Speed 14 mph    
Max Gust Speed 18 mph    
Visibility 10 miles    
Events      
T = Trace of Precipitation, MM = Missing Value Source: NWS Daily Summary

Daily Weather History Graph

Daily Weather History Graph

Search for Another Location

Airport or City:

Trip Planner

Search our weather history database for the weather conditions in past years. The results will help you decide how hot, cold, wet, or windy it might be!

Date:

Astronomy

Oct. 26, 2011 Rise Set
Actual Time 7:20 AM PDT 6:04 PM PDT
Civil Twilight 6:52 AM PDT 6:32 PM PDT
Nautical Twilight 6:21 AM PDT 7:04 PM PDT
Astronomical Twilight 5:50 AM PDT 7:35 PM PDT
Moon 7:14 AM PDT (10/26) 5:51 PM PDT (10/26)
Length of Visible Light 11h 39m
Length of Day
10h 44m
Waning Crescent, 0% of the Moon is Illuminated
Oct 26
Waning Crescent
Oct 26
New
Nov 2
First Quarter
Nov 10
Full
Nov 18
Last Quarter

Hourly Weather History & Observations

Time (PDT) Temp. Windchill Dew Point Humidity Pressure Visibility Wind Dir Wind Speed Gust Speed Precip Events Conditions
12:55 AM 37.9 °F - 21.0 °F 51% 30.22 in 10.0 mi Calm Calm - N/A   Clear
1:55 AM 35.6 °F - 19.4 °F 52% 30.26 in 10.0 mi Calm Calm - N/A   Clear
2:55 AM 34.0 °F - 19.0 °F 54% 30.24 in 10.0 mi Calm Calm - N/A   Clear
3:55 AM 33.8 °F - 17.6 °F 52% 30.28 in 10.0 mi Calm Calm - N/A   Clear
4:55 AM 30.9 °F - 17.1 °F 57% 30.26 in 10.0 mi Calm Calm - N/A   Clear
5:55 AM 30.0 °F - 17.1 °F 59% 30.28 in 10.0 mi Calm Calm - N/A   Clear
6:55 AM 30.0 °F - 17.1 °F 59% 30.30 in 10.0 mi Calm Calm - N/A   Clear
7:55 AM 33.1 °F 30.0 °F 17.1 °F 52% 30.32 in 10.0 mi NW 3.5 mph - N/A   Clear
8:55 AM 36.0 °F - 18.0 °F 48% 30.34 in 10.0 mi Calm Calm - N/A   Clear
9:55 AM 42.8 °F - 12.2 °F 29% 30.36 in 10.0 mi Calm Calm - N/A   Clear
10:55 AM 45.0 °F - 10.0 °F 24% 30.34 in 10.0 mi Calm Calm - N/A   Partly Cloudy
11:55 AM 48.9 °F - 9.0 °F 20% 30.30 in 10.0 mi East 8.1 mph - N/A   Partly Cloudy
12:55 PM 50.0 °F - 9.0 °F 19% 30.27 in 10.0 mi SE 9.2 mph 16.1 mph N/A   Scattered Clouds
1:55 PM 52.0 °F - 7.0 °F 16% 30.24 in 10.0 mi ENE 8.1 mph - N/A   Scattered Clouds
2:55 PM 53.1 °F - 3.0 °F 13% 30.22 in 10.0 mi East 10.4 mph - N/A   Partly Cloudy
3:55 PM 53.1 °F - 3.9 °F 14% 30.21 in 10.0 mi East 10.4 mph - N/A   Partly Cloudy
4:55 PM 53.1 °F - 3.9 °F 14% 30.20 in 10.0 mi East 8.1 mph - N/A   Partly Cloudy
5:55 PM 48.9 °F - 5.0 °F 17% 30.21 in 10.0 mi East 9.2 mph - N/A   Partly Cloudy
6:55 PM 46.0 °F 39.9 °F 3.9 °F 18% 30.23 in 10.0 mi East 13.8 mph - N/A   Partly Cloudy
7:55 PM 45.0 °F 41.2 °F 5.0 °F 19% 30.24 in 10.0 mi ENE 6.9 mph - N/A   Partly Cloudy
8:55 PM 39.2 °F 35.9 °F 8.6 °F 28% 30.24 in 10.0 mi South 4.6 mph - N/A   Clear
9:55 PM 37.0 °F 32.4 °F 10.0 °F 33% 30.25 in 10.0 mi South 5.8 mph - N/A   Clear
10:55 PM 37.4 °F - 10.4 °F 33% 30.26 in 10.0 mi Calm Calm - N/A   Clear
11:55 PM 35.1 °F 32.2 °F 10.9 °F 37% 30.23 in 10.0 mi SSE 3.5 mph - N/A   Clear